Weather History for LGRX - October, 2012

Change the Weather History Date:

Saturday, October 27, 2012

  Actual Average Record
Temperature  
Mean Temperature 65 °F -  
Max Temperature 77 °F 65 °F - ()
Min Temperature 53 °F 50 °F - ()
Growing Degree Days 15 (Base 50)    
Moisture  
Dew Point 61 °F    
Average Humidity 77    
Maximum Humidity 94    
Minimum Humidity 65    
Precipitation  
Precipitation 0.00 in - - ()
Sea Level Pressure  
Sea Level Pressure 29.75 in    
Wind  
Wind Speed 8 mph ()    
Max Wind Speed 25 mph    
Max Gust Speed 34 mph    
Visibility 6.2 miles    
Events      
T = Trace of Precipitation, MM = Missing Value Source: Averaged Metar Reports

Daily Weather History Graph

Daily Weather History Graph

Search for Another Location

Airport or City:

Trip Planner

Search our weather history database for the weather conditions in past years. The results will help you decide how hot, cold, wet, or windy it might be!

Date:

Astronomy

Oct. 27, 2012 Rise Set
Actual Time 7:55 AM EEST 6:40 PM EEST
Civil Twilight 7:28 AM EEST 7:07 PM EEST
Nautical Twilight 6:57 AM EEST 7:38 PM EEST
Astronomical Twilight 6:26 AM EEST 8:09 PM EEST
Moon 5:15 PM EEST (10/27) 5:33 AM EEST (10/27)
Length of Visible Light 11h 39m
Length of Day
10h 45m
Waxing Gibbous, 94% of the Moon is Illuminated
Oct 27
Waxing Gibbous
Oct 29
Full
Nov 7
Last Quarter
Nov 14
New
Nov 20
First Quarter

Hourly Weather History & Observations

Time (EEST) Temp. Dew Point Humidity Pressure Visibility Wind Dir Wind Speed Gust Speed Precip Events Conditions
12:50 AM 55.4 °F 53.6 °F 94% 29.86 in - Calm Calm - N/A   Clear
2:50 AM 55.4 °F 53.6 °F 94% 29.83 in 6.2 mi Calm Calm - N/A   Scattered Clouds
3:50 AM 55.4 °F 53.6 °F 94% 29.83 in 6.2 mi Calm Calm - N/A   Scattered Clouds
4:50 AM 53.6 °F 51.8 °F 94% 29.83 in 6.2 mi Calm Calm - N/A   Scattered Clouds
5:50 AM 57.2 °F 53.6 °F 88% 29.80 in - Calm Calm - N/A   Clear
6:50 AM 57.2 °F 53.6 °F 88% 29.77 in 6.2 mi Calm Calm - N/A   Scattered Clouds
7:20 AM 57.2 °F 53.6 °F 88% 29.77 in 6.2 mi Calm Calm - N/A   Mostly Cloudy
7:50 AM 59.0 °F 57.2 °F 94% 29.77 in 6.2 mi Calm Calm - N/A   Mostly Cloudy
8:20 AM 60.8 °F 59.0 °F 94% 29.77 in 6.2 mi SSE 4.6 mph - N/A   Mostly Cloudy
8:50 AM 66.2 °F 60.8 °F 83% 29.77 in 6.2 mi SSE 8.1 mph - N/A   Mostly Cloudy
9:20 AM 68.0 °F 59.0 °F 73% 29.77 in 6.2 mi SSE 8.1 mph - N/A   Mostly Cloudy
9:50 AM 68.0 °F 59.0 °F 73% 29.77 in 6.2 mi SSE 8.1 mph - N/A   Mostly Cloudy
10:20 AM 69.8 °F 59.0 °F 68% 29.77 in 6.2 mi South 10.4 mph - N/A   Overcast
10:50 AM 68.0 °F 62.6 °F 83% 29.77 in 6.2 mi South 12.7 mph - N/A   Mostly Cloudy
11:20 AM 71.6 °F 62.6 °F 73% 29.77 in 6.2 mi South 11.5 mph - N/A   Scattered Clouds
11:50 AM 71.6 °F 62.6 °F 73% 29.77 in 6.2 mi South 23.0 mph - N/A   Mostly Cloudy
12:20 PM 73.4 °F 62.6 °F 69% 29.77 in 6.2 mi South 20.7 mph - N/A   Mostly Cloudy
1:20 PM 73.4 °F 64.4 °F 73% 29.77 in 6.2 mi South 21.9 mph - N/A   Mostly Cloudy
1:50 PM 77.0 °F 64.4 °F 65% 29.74 in 6.2 mi South 25.3 mph - N/A   Mostly Cloudy
2:20 PM 77.0 °F 64.4 °F 65% 29.74 in 6.2 mi SSW 23.0 mph 34.5 mph N/A   Mostly Cloudy
2:50 PM 75.2 °F 64.4 °F 69% 29.74 in 6.2 mi South 23.0 mph - N/A   Mostly Cloudy
3:20 PM 77.0 °F 64.4 °F 65% 29.74 in 6.2 mi South 23.0 mph - N/A   Mostly Cloudy
3:50 PM 75.2 °F 64.4 °F 69% 29.71 in 6.2 mi South 23.0 mph - N/A   Mostly Cloudy
4:20 PM 75.2 °F 64.4 °F 69% 29.71 in 6.2 mi South 17.3 mph - N/A   Overcast
4:50 PM 75.2 °F 66.2 °F 73% 29.71 in 6.2 mi South 15.0 mph - N/A   Overcast
5:20 PM 75.2 °F 64.4 °F 69% 29.71 in 6.2 mi SSW 16.1 mph - N/A   Overcast
5:50 PM 73.4 °F 64.4 °F 73% 29.71 in 6.2 mi SSW 16.1 mph - N/A   Mostly Cloudy
6:20 PM 73.4 °F 64.4 °F 73% 29.71 in 6.2 mi South 17.3 mph - N/A   Mostly Cloudy
6:50 PM 73.4 °F 64.4 °F 73% 29.68 in 6.2 mi South 20.7 mph - N/A   Mostly Cloudy
7:20 PM 73.4 °F 64.4 °F 73% 29.68 in 6.2 mi South 20.7 mph - N/A   Mostly Cloudy
7:50 PM 73.4 °F 64.4 °F 73% 29.71 in 6.2 mi South 12.7 mph - N/A   Overcast
8:20 PM 73.4 °F 64.4 °F 73% 29.71 in 6.2 mi South 15.0 mph - N/A   Overcast
8:50 PM 73.4 °F 64.4 °F 73% 29.68 in 6.2 mi South 13.8 mph - N/A   Mostly Cloudy
9:50 PM 73.4 °F 64.4 °F 73% 29.68 in 6.2 mi South 12.7 mph - N/A   Mostly Cloudy
10:50 PM 73.4 °F 60.8 °F 65% 29.71 in 6.2 mi South 9.2 mph - N/A   Mostly Cloudy
11:50 PM 71.6 °F 62.6 °F 73% 29.71 in 6.2 mi South 5.8 mph - N/A   Mostly Cloudy